Wind_Gust
18 18 18 18 18 18 18 18 18 18 17 17 18 17 17 17 18 17 18 19 19 21 21 22 22 21 21 20 20 19 18 17 16 15 14 13 13 11 13 13 13 12 11 12 11 9 8 8 9 9 9 11 11 11 12 11 12 13 13 14 15 14 15 18 22 24 19 16 18 19 17 17 22 18 19 18 18 18 15 20 20 19 20 21 21
16 17 18 19 19 19 19 18 19 19 17 17 18 18 17 18 17 17 17 19 20 22 23 22 22 22 21 21 20 19 19 18 17 16 16 15 14 13 13 13 12 11 10 11 11 10 9 9 10 8 10 12 11 15 13 12 14 15 14 14 15 15 14 18 20 22 23 18 20 17 19 17 22 18 18 18 18 18 22 20 21 21 21 21 20
17 16 17 18 19 20 19 19 19 18 19 19 18 19 17 16 17 18 18 18 20 21 22 22 22 22 22 21 21 20 19 18 17 16 16 17 17 15 14 14 13 13 13 12 11 10 9 9 10 9 9 10 11 12 12 14 15 16 15 15 16 16 16 17 20 22 21 22 19 21 19 18 18 19 18 19 19 21 23 23 23 22 21 19 21
14 15 16 16 15 18 19 18 18 18 18 19 18 18 18 17 17 17 20 16 19 20 21 23 23 23 23 23 22 21 21 19 18 18 18 17 17 17 16 15 14 13 12 12 12 11 10 10 10 11 11 12 12 12 13 12 13 15 15 15 16 17 17 17 19 21 22 23 19 21 19 20 21 20 19 19 19 20 22 23 21 23 22 22 23
11 13 15 15 16 16 17 19 20 19 19 20 19 18 18 18 17 19 18 19 19 21 21 22 23 25 25 24 23 23 22 21 20 19 17 16 16 16 15 15 14 13 12 11 6 11 10 10 12 12 12 13 13 13 13 12 16 16 16 17 17 17 16 17 19 20 22 23 22 20 20 22 22 21 19 22 20 20 20 21 21 22 21 20 22
17 14 13 13 15 16 17 19 20 21 22 23 22 22 23 19 22 18 19 20 18 18 20 20 20 22 23 23 24 24 24 23 22 21 20 18 16 16 15 14 14 14 13 12 11 10 10 11 11 11 12 13 14 14 15 15 16 16 17 18 19 18 18 19 20 22 23 24 22 23 19 22 21 21 19 20 21 22 20 20 20 21 22 21 21
16 16 16 13 14 14 16 15 14 16 19 20 19 21 20 20 22 22 20 19 19 20 21 22 21 23 24 24 24 25 24 23 22 20 19 19 18 18 17 15 14 13 12 12 11 10 11 11 11 11 12 12 14 15 16 16 17 17 18 18 18 18 19 20 21 22 23 24 24 22 23 21 20 22 19 18 19 21 22 21 20 18 17 17 18
13 13 13 13 13 12 12 12 13 14 14 16 16 17 18 18 18 18 18 20 22 24 24 25 24 25 27 25 23 22 22 22 21 20 19 19 19 18 18 16 15 14 12 11 11 11 11 11 12 12 12 13 13 14 15 17 17 18 18 18 18 19 20 20 20 22 23 23 24 24 22 22 20 19 20 18 19 19 20 19 19 17 18 19 20
12 12 11 11 12 13 14 13 12 12 13 14 15 16 17 16 15 17 20 21 22 24 25 27 28 29 27 25 25 24 24 22 23 24 20 20 19 18 17 16 14 13 12 12 11 11 12 12 13 14 12 7 6 9 12 11 20 21 20 20 20 21 21 21 22 22 23 23 24 23 24 23 21 20 20 19 19 18 16 17 21 21 21 22 22
12 12 12 11 11 12 13 13 14 14 14 13 13 14 15 15 17 19 20 21 20 21 24 25 26 25 25 27 23 19 17 19 14 14 10 18 18 17 15 14 14 13 11 11 11 12 13 14 14 7 9 10 12 12 13 15 15 21 24 21 21 21 22 23 23 23 24 25 25 24 25 24 22 20 21 19 19 19 20 19 21 19 20 22 23
13 13 14 13 13 13 13 13 14 15 14 14 14 15 14 15 17 18 18 19 20 21 24 27 26 26 28 26 23 19 19 14 16 13 10 8 13 14 14 13 12 11 11 11 12 13 15 15 16 11 12 14 22 19 18 17 17 18 19 19 18 26 24 25 25 23 26 27 26 26 26 26 24 22 22 22 20 20 20 20 21 21 21 22 24
14 14 14 15 15 16 15 14 15 15 15 16 16 16 16 16 17 17 17 18 19 19 23 25 26 25 26 27 24 22 18 14 17 16 13 10 6 14 13 13 12 11 11 11 13 14 15 16 15 15 16 17 18 18 18 18 20 19 19 19 19 20 20 27 27 27 25 27 28 27 27 27 26 23 23 21 21 20 20 20 21 22 22 23 23
15 15 16 17 17 16 17 17 16 15 15 15 14 15 16 17 18 18 18 18 17 20 21 23 24 26 26 25 24 22 18 17 18 17 14 12 7 6 13 11 10 10 10 12 13 15 15 17 17 16 18 8 16 21 21 19 15 21 21 20 21 21 20 22 23 31 30 31 29 29 28 26 26 25 22 23 21 24 23 25 23 23 24 25 24
15 16 17 18 17 17 17 17 16 16 15 15 15 16 17 18 17 17 17 18 19 19 20 21 22 24 25 24 23 20 21 17 19 17 15 12 6 4 11 11 9 10 12 12 13 14 15 17 18 18 17 17 18 19 19 19 19 19 20 22 24 24 26 28 27 26 28 34 32 34 28 26 30 25 24 24 28 28 27 27 25 27 26 27 23
18 18 18 17 17 17 17 17 17 16 16 16 16 17 17 17 18 19 19 20 21 21 21 22 23 23 23 22 21 20 21 19 19 18 16 12 8 5 11 11 11 11 12 12 14 14 16 17 17 19 19 19 18 13 18 19 20 20 21 22 23 24 24 23 26 30 30 31 33 33 32 31 32 31 30 30 30 31 31 30 29 29 31 30 32
20 19 19 18 18 17 17 17 17 17 17 17 18 18 18 18 19 18 19 20 21 20 20 21 22 22 21 20 19 21 20 19 19 18 15 12 11 13 13 12 12 13 13 14 14 16 16 16 18 19 19 19 13 5 9 19 20 22 23 23 24 25 25 17 17 17 25 28 27 28 27 24 16 21 20 21 23 23 24 28 28 29 31 32 34
20 20 19 18 18 18 19 19 18 18 18 18 18 18 18 19 19 19 21 22 21 21 21 21 21 21 20 19 20 21 19 17 18 17 14 13 11 13 11 13 13 13 14 14 15 16 16 16 17 20 19 20 9 4 4 6 22 24 25 26 28 28 29 28 19 17 16 17 20 22 24 25 26 26 25 24 24 22 26 28 29 27 30 34 33
22 22 21 19 20 20 20 20 20 19 19 19 19 18 18 18 19 19 22 22 22 22 20 20 19 19 18 19 23 23 19 16 18 15 13 13 8 10 11 12 12 14 15 14 15 16 16 8 13 20 20 20 6 5 3 10 24 27 28 29 30 31 30 28 29 27 16 17 19 20 21 22 21 23 26 27 27 21 29 38 33 30 37 34 36
23 23 22 21 22 21 21 21 21 20 21 20 19 18 18 19 18 20 21 21 19 18 19 20 18 16 16 20 19 24 21 16 15 15 12 11 10 9 10 13 14 15 16 17 16 17 18 13 13 16 17 16 11 12 11 15 25 25 27 29 31 30 30 28 30 28 28 28 27 27 25 24 28 31 31 24 26 26 35 38 36 36 40 36 33
22 22 22 22 22 22 21 21 22 22 23 21 20 20 18 18 19 19 17 18 16 17 17 19 20 17 17 20 20 20 21 17 16 13 11 9 6 9 11 13 15 16 17 18 19 19 19 20 16 18 19 14 10 9 10 12 23 27 27 29 30 31 27 28 27 27 29 29 29 28 29 28 28 26 28 28 28 29 35 37 37 39 40 38 35
23 23 23 23 22 24 24 23 24 24 24 24 24 22 21 20 18 16 15 14 15 16 17 17 19 20 19 19 19 17 17 18 16 12 10 9 7 6 12 14 15 18 19 21 22 22 21 20 19 11 8 8 6 7 10 12 14 28 30 31 31 29 23 30 30 20 30 30 31 31 32 30 30 30 30 31 31 31 31 32 34 36 38 38 37
24 24 24 24 25 25 24 24 24 24 24 24 24 23 21 17 16 16 16 16 18 18 16 16 16 15 15 16 16 15 11 9 15 9 9 8 7 7 12 13 13 18 21 22 22 22 21 21 20 15 9 7 6 9 13 15 17 30 35 24 23 22 34 34 33 32 32 31 31 31 31 30 31 30 30 30 30 30 32 32 32 34 36 37 37
25 25 26 27 25 25 24 23 24 24 24 23 23 22 18 17 17 17 16 16 18 19 18 18 18 17 15 13 14 13 12 10 5 10 10 8 10 9 7 10 4 17 21 23 22 23 22 21 21 10 10 12 16 19 23 24 23 32 25 24 24 23 24 34 32 32 31 31 30 31 30 30 31 32 31 31 30 29 31 29 30 30 30 32 34
26 28 27 26 27 27 26 26 25 25 24 23 21 19 18 18 18 18 19 19 19 18 18 19 19 19 18 16 15 15 13 12 9 6 10 10 8 8 9 10 9 15 19 21 21 22 23 23 22 20 23 24 25 25 25 25 34 26 25 25 25 24 33 32 30 30 29 31 32 32 32 30 31 31 30 29 29 28 29 28 28 29 29 29 30
27 28 29 29 27 26 26 26 25 25 24 21 19 19 17 18 20 18 20 20 20 20 18 18 19 18 17 17 16 14 13 14 13 12 10 9 10 10 11 11 12 11 18 20 21 25 18 18 20 22 22 23 25 26 24 24 26 27 26 25 24 29 29 29 29 28 30 31 31 32 32 31 31 31 29 27 26 26 27 27 27 28 27 29 28
28 28 29 28 28 27 26 25 24 22 15 17 19 21 22 21 20 19 16 18 19 19 18 18 18 18 17 15 14 14 12 11 12 15 13 11 11 13 13 13 13 11 15 21 17 20 22 23 22 22 22 23 27 25 25 28 18 19 22 23 28 28 26 27 28 29 30 30 30 31 31 29 30 29 27 27 28 28 27 27 27 27 27 28 28
29 29 30 29 27 27 24 24 18 15 14 15 15 15 17 18 19 18 18 19 19 20 20 18 18 17 16 15 13 12 10 9 9 8 11 14 15 14 15 14 8 13 19 19 15 22 24 22 24 20 22 24 26 24 25 24 27 26 24 23 24 24 24 25 27 28 28 29 29 30 29 29 27 26 28 27 28 28 26 26 26 26 24 25 26
30 30 29 27 25 21 18 11 18 19 17 18 19 18 16 17 19 17 15 16 17 16 16 16 17 18 16 15 14 14 13 12 12 13 15 16 17 17 17 17 18 19 20 19 21 23 27 16 19 22 21 21 22 21 21 22 22 23 24 23 24 23 22 17 19 29 30 31 30 29 28 27 27 27 27 27 28 27 25 26 26 25 22 22 25
28 26 25 19 16 16 20 18 19 21 17 17 19 18 18 19 18 17 13 13 13 15 15 18 15 15 15 14 11 12 12 13 15 7 12 6 9 16 16 17 19 19 13 14 24 24 23 23 19 22 21 20 21 22 23 23 22 23 24 24 24 25 25 25 26 27 27 28 29 28 28 28 28 27 27 28 28 27 24 25 23 23 21 22 22
16 15 18 19 18 17 16 19 17 17 16 15 19 20 17 16 12 18 13 12 15 13 9 14 16 15 15 14 14 12 11 14 7 4 2 3 4 6 7 9 11 16 15 16 18 21 19 20 19 20 21 21 22 22 23 23 23 24 23 17 24 25 25 25 26 27 25 25 26 27 27 26 27 26 26 25 27 26 24 16 21 19 20 22 23
14 14 14 13 13 16 18 20 21 22 20 21 22 23 22 22 21 20 14 13 13 14 14 15 14 11 13 15 14 13 12 8 4 2 3 4 5 6 8 10 12 13 14 19 18 17 18 19 19 19 20 21 22 23 23 24 24 24 24 24 23 23 23 25 26 24 24 25 26 26 27 27 26 25 25 24 23 24 20 20 21 21 21 22 24
17 16 15 14 16 15 15 17 19 19 21 22 23 24 25 24 21 17 16 14 13 12 12 11 11 10 11 11 9 15 10 7 3 2 4 5 6 7 9 10 12 14 14 14 19 18 18 19 19 20 20 21 21 22 23 24 24 24 25 25 25 23 24 25 24 25 25 25 26 25 26 26 25 24 22 22 21 21 19 20 21 22 21 23 21
17 18 17 18 18 16 14 13 14 17 19 20 20 21 22 19 18 14 15 13 13 11 10 9 9 10 12 14 13 11 8 6 3 3 5 6 8 9 10 14 16 17 16 16 15 18 17 18 19 19 21 21 22 22 23 24 24 25 25 25 26 26 25 25 20 27 26 26 25 26 25 25 25 24 23 23 22 25 23 24 24 22 21 25 25
15 14 17 18 16 15 13 13 16 18 20 21 21 21 18 17 16 15 14 13 14 13 11 9 8 10 9 8 8 6 5 3 2 4 5 6 8 11 12 15 16 17 14 15 17 18 18 18 19 21 22 21 22 23 23 24 25 25 26 26 27 26 27 26 26 25 24 24 24 23 23 23 23 26 26 24 23 24 24 23 23 24 26 27 26
17 12 12 8 14 15 17 18 19 21 20 19 19 17 16 15 15 16 17 15 13 14 13 13 6 4 10 8 4 4 5 4 4 3 4 6 9 12 17 17 16 13 16 18 19 20 19 20 21 22 23 23 23 23 24 25 26 26 26 26 26 26 25 25 25 24 24 24 23 23 21 22 22 22 23 23 23 23 22 21 21 21 22 21 21
14 13 11 9 14 17 20 21 21 21 21 20 18 17 17 17 16 15 15 15 15 14 12 12 11 5 5 5 6 5 5 5 5 6 5 5 12 14 16 19 18 17 17 17 18 19 21 21 22 23 24 24 24 24 24 25 25 26 25 26 27 26 25 25 24 25 24 25 24 22 21 22 22 21 21 22 20 22 21 18 19 18 19 20 19
14 14 12 11 13 18 20 22 22 21 13 15 17 17 15 14 13 14 13 13 10 12 12 12 13 14 9 12 11 8 8 6 8 9 10 14 16 16 17 17 18 17 19 19 19 20 21 21 21 22 23 23 24 25 25 26 26 27 22 27 25 26 25 24 26 23 27 28 25 23 21 23 22 20 20 21 20 21 22 20 20 16 16 16 12
6 8 9 8 7 7 14 16 15 9 15 15 15 15 13 13 12 11 10 9 9 9 10 13 9 12 13 12 11 8 13 10 11 11 13 15 14 17 18 16 16 18 19 19 19 20 21 22 22 23 23 24 25 25 26 26 25 26 26 24 25 24 21 27 21 22 19 21 22 22 21 21 20 20 19 21 20 18 18 16 17 19 17 14 16
8 7 9 7 5 8 11 13 15 15 14 13 13 12 10 10 8 8 10 9 9 8 7 9 7 4 6 7 6 5 12 15 10 8 9 10 14 16 16 17 17 19 19 19 20 20 21 22 22 23 24 24 25 24 24 25 25 26 25 25 26 26 25 24 23 22 22 22 23 21 21 21 20 18 17 17 17 16 16 15 13 15 16 16 18
12 11 9 8 10 8 8 9 13 14 13 11 10 8 9 7 6 7 8 9 8 7 6 5 5 7 9 10 9 13 13 9 7 8 9 10 14 15 15 17 18 19 20 21 21 21 22 22 23 24 24 24 25 25 25 25 25 25 24 25 25 25 25 24 24 24 23 21 21 20 20 19 17 15 13 14 14 14 13 13 14 14 15 14 14
11 12 9 8 9 11 9 12 13 11 8 9 8 8 5 8 8 6 7 6 6 5 4 7 10 13 13 14 8 12 14 10 9 8 8 12 14 14 15 16 18 18 19 20 21 22 22 23 24 24 24 24 25 26 25 26 26 25 25 25 25 25 26 24 23 22 22 21 19 19 17 17 14 12 12 12 9 11 11 11 12 13 13 13 13
13 13 13 13 11 9 11 11 12 12 11 7 11 8 10 10 8 7 7 5 5 4 5 5 11 12 13 9 8 11 13 9 8 11 9 10 11 13 14 15 16 17 19 20 21 22 22 22 23 24 24 24 24 24 24 25 25 26 26 25 25 24 25 26 24 21 19 20 20 18 16 15 15 11 11 7 10 11 11 12 12 11 13 14 13
12 13 14 13 11 10 12 12 13 13 11 11 11 9 11 12 11 11 10 12 11 9 6 5 7 8 10 6 9 9 11 7 6 8 9 10 11 12 14 15 16 17 17 18 20 21 22 23 24 24 24 25 24 24 25 24 24 25 26 24 26 25 25 25 23 20 18 18 19 17 16 15 13 10 9 7 8 7 9 10 10 10 11 12 14
14 13 13 14 15 15 14 15 16 16 14 13 12 15 13 12 11 12 10 9 8 8 7 6 7 7 7 9 8 10 8 8 8 10 9 9 11 12 14 15 17 18 18 19 19 20 21 22 23 25 24 24 23 20 23 24 23 24 24 25 24 25 25 23 22 21 19 19 18 15 14 13 12 9 6 5 6 7 8 9 10 11 14 14 16
13 12 12 14 15 16 18 17 17 14 14 11 10 11 13 13 12 11 9 9 11 8 6 7 8 7 10 7 8 9 9 9 8 8 10 11 11 12 14 15 16 17 18 19 20 20 20 22 23 23 25 25 24 24 24 24 23 23 23 24 23 24 24 23 21 19 17 16 16 14 12 11 10 8 5 4 5 6 7 8 10 10 13 14 15
15 14 14 15 16 16 16 17 15 15 11 11 10 10 11 13 14 14 11 10 9 8 7 8 8 8 8 9 9 12 10 10 10 10 13 11 12 13 14 15 16 17 18 19 20 19 21 21 23 24 25 25 24 25 24 23 24 22 20 20 21 22 21 20 18 16 15 13 14 12 11 8 7 7 5 7 8 9 10 10 10 12 14 15 15
15 15 16 16 17 17 17 16 16 15 15 13 13 11 11 14 14 13 13 13 12 12 10 10 9 9 10 10 11 11 12 11 11 11 11 11 12 13 14 15 17 17 18 18 18 21 21 21 22 23 24 24 23 22 23 24 24 23 20 20 20 20 19 19 16 15 15 13 10 9 9 7 8 9 10 12 12 13 12 12 12 12 12 13 15
16 16 17 16 16 16 16 16 16 12 16 16 15 13 14 13 13 13 12 12 14 14 14 13 13 13 12 11 13 12 13 12 12 13 12 12 13 14 14 15 16 18 18 18 18 20 21 21 21 21 24 24 23 23 22 24 24 23 21 19 20 22 23 19 15 13 12 11 11 9 9 11 11 12 11 11 11 13 16 15 13 13 15 17 16
16 17 17 18 17 16 16 16 15 16 15 14 14 15 14 14 14 13 13 14 14 15 15 14 14 14 13 14 14 14 14 14 13 12 13 13 14 15 15 16 16 18 18 18 19 19 20 20 20 21 22 23 22 23 23 22 24 24 21 18 22 24 22 21 16 16 13 14 13 12 12 13 13 12 13 13 15 16 16 13 12 14 16 16 17
17 17 17 17 17 17 17 16 16 16 15 15 15 14 15 15 16 15 16 16 16 16 16 16 15 15 15 15 15 15 15 14 13 14 14 14 15 15 16 16 17 17 18 18 19 19 19 19 19 20 22 22 23 23 24 23 23 24 22 24 24 23 23 21 19 19 16 14 15 13 14 13 13 15 16 16 14 15 17 18 16 16 16 19 20
18 19 18 18 18 17 17 17 17 17 17 16 15 15 15 15 15 16 16 16 16 16 16 16 15 15 15 14 14 14 15 15 15 15 15 14 15 16 16 17 18 18 18 17 18 18 18 20 20 21 21 21 23 23 22 21 20 21 23 25 24 23 23 22 22 18 18 12 14 16 16 16 15 16 14 15 15 15 18 16 20 19 20 22 22
Wind_Speed
9 8 8 9 10 10 10 9 10 9 9 9 9 9 8 9 9 8 9 9 9 10 11 11 11 11 10 9 9 9 8 8 7 6 6 6 5 4 5 5 5 4 4 4 3 2 1 1 2 2 2 4 3 4 4 4 4 5 5 5 5 5 6 7 9 9 7 6 7 7 7 8 9 9 9 8 8 8 9 9 10 9 9 9 9
6 7 8 9 11 10 11 10 9 9 9 9 9 9 8 8 8 9 9 9 10 11 12 11 11 11 10 10 10 9 9 8 8 7 6 7 6 5 5 5 5 4 3 3 3 2 2 2 2 1 2 4 4 6 4 4 5 5 5 5 6 6 5 7 8 9 10 7 8 7 8 7 9 8 8 8 9 9 10 9 8 10 9 9 8
6 6 8 8 8 9 9 10 10 11 11 10 10 9 9 8 8 9 9 8 9 10 11 12 12 11 11 10 10 10 10 9 8 7 7 8 7 7 6 6 5 5 5 4 3 3 2 2 2 1 2 3 3 5 4 5 5 6 6 6 7 7 7 7 8 9 10 9 8 8 7 7 7 8 8 8 9 9 11 10 10 9 9 9 8
5 6 6 8 8 7 7 8 9 9 9 9 10 10 9 8 8 8 8 8 9 9 11 12 12 12 12 12 12 11 11 9 9 8 8 8 8 7 7 6 6 5 5 4 4 3 2 2 2 2 2 3 4 4 4 4 5 5 6 6 7 7 7 7 9 9 9 10 8 8 7 8 8 9 8 8 8 9 9 10 9 10 10 9 10
3 5 6 6 6 6 7 8 9 9 8 7 9 9 9 9 8 9 9 9 9 8 9 9 11 12 12 13 12 12 11 11 10 9 8 8 8 7 7 7 6 5 5 4 2 3 3 3 3 3 3 4 4 4 4 5 6 6 7 7 7 7 6 7 8 9 10 10 9 8 8 9 9 9 8 9 8 8 9 9 8 9 10 10 10
5 4 3 3 3 4 4 7 9 8 8 10 11 10 9 10 10 9 9 10 9 9 10 10 10 11 11 12 12 13 12 12 12 11 10 9 8 7 7 6 6 5 5 4 4 3 3 3 3 3 3 4 4 4 5 6 6 7 8 7 8 8 8 9 9 10 11 11 10 10 8 8 9 8 9 9 9 9 8 8 9 9 9 9 9
7 7 7 6 4 4 4 6 6 6 8 9 9 9 10 10 10 10 10 10 10 9 11 12 11 13 13 13 13 12 12 12 10 10 9 9 9 9 8 7 6 5 4 4 3 3 3 4 3 4 4 4 5 5 5 6 6 8 8 8 8 8 8 8 9 10 10 11 11 10 10 9 9 9 8 7 8 9 9 9 8 6 6 6 7
5 5 5 6 5 5 4 4 5 6 7 6 6 7 8 9 9 9 9 10 11 12 12 13 12 12 13 13 12 11 11 11 10 9 9 9 9 9 8 7 7 6 5 4 4 3 3 4 4 4 5 5 5 5 6 7 7 8 7 7 8 8 9 9 9 9 10 11 10 10 9 9 8 8 8 8 8 8 7 7 8 7 6 7 8
5 4 4 3 4 5 5 4 3 4 4 5 6 7 8 8 6 7 8 9 9 12 12 13 14 15 15 12 13 13 12 11 11 11 10 10 9 9 8 7 6 5 5 4 4 4 4 4 5 6 4 4 5 6 8 7 7 9 9 9 9 10 10 9 10 9 10 10 11 10 10 9 9 8 8 8 8 7 6 6 9 9 9 9 8
5 4 4 4 4 5 5 5 6 6 5 5 5 5 6 6 7 9 10 11 10 11 12 12 13 13 13 14 13 9 6 7 9 12 10 9 9 7 6 6 6 5 4 3 4 4 5 5 6 6 6 8 10 11 11 12 12 11 10 9 9 10 10 10 10 10 10 11 11 11 11 10 9 9 9 8 8 8 9 9 9 8 8 9 9
5 5 5 5 5 5 5 5 5 7 6 6 6 6 6 6 7 9 9 9 10 10 10 12 13 12 14 14 12 9 8 6 12 11 9 6 7 7 6 6 5 4 4 4 4 4 5 6 6 6 8 11 13 16 14 13 13 14 15 14 13 12 11 11 11 11 11 12 11 11 12 12 11 10 10 10 9 9 9 8 9 9 9 8 9
5 5 6 6 7 7 6 6 6 7 7 7 7 7 6 7 8 8 8 9 9 9 11 13 13 13 13 15 13 10 9 11 15 13 12 9 5 6 5 5 4 4 4 4 4 4 5 6 6 6 7 8 8 8 11 15 16 15 15 15 15 16 15 14 12 12 12 12 13 13 13 13 12 11 10 9 9 9 9 9 9 9 10 10 9
6 7 7 7 8 7 7 7 7 7 6 7 6 6 7 8 8 8 9 8 8 10 11 12 13 13 14 14 13 12 8 14 15 14 12 10 7 3 5 4 3 4 3 4 4 5 6 6 7 6 7 5 7 10 10 9 12 17 17 16 17 17 16 18 18 16 14 15 14 15 13 12 13 11 10 10 10 11 11 11 10 10 10 11 10
6 7 8 8 8 8 8 7 7 7 7 7 7 7 8 8 8 8 7 8 8 9 11 12 12 13 13 12 12 10 10 13 16 14 13 11 6 1 4 4 2 3 4 4 4 5 6 7 7 7 7 8 8 9 9 9 9 8 9 10 11 15 20 22 20 20 19 17 16 17 15 13 14 12 12 12 13 13 12 12 11 12 12 13 12
7 7 8 8 8 7 7 7 8 7 7 7 7 8 8 8 9 9 8 9 9 9 10 11 12 12 13 11 10 10 9 15 15 15 13 11 7 4 4 4 3 4 4 5 6 6 7 7 8 9 8 8 8 6 8 9 9 9 10 11 11 12 11 11 14 15 14 15 16 17 16 15 16 16 15 15 16 15 15 16 16 15 15 16 16
9 9 9 8 8 7 7 8 8 8 8 8 8 8 8 9 9 8 8 8 8 9 10 10 11 12 11 11 10 11 10 15 16 15 13 10 9 5 5 4 4 5 5 6 6 6 7 7 7 8 9 9 10 2 4 8 10 10 11 12 12 12 11 11 12 12 13 13 12 13 13 12 11 10 10 10 10 10 11 12 13 14 15 15 15
10 10 9 9 8 8 9 9 9 8 8 9 9 9 9 9 9 8 9 9 9 10 10 10 10 11 11 10 11 11 10 12 15 14 12 11 8 5 4 4 5 5 6 6 6 7 7 7 7 7 9 10 5 3 3 4 10 11 12 13 12 12 12 11 13 14 13 13 15 16 17 18 19 18 17 16 12 10 11 12 13 11 14 16 15
11 11 10 9 9 9 9 10 10 9 9 9 9 9 8 8 8 8 9 9 10 10 9 9 9 9 10 10 12 12 10 11 15 13 11 11 6 3 3 4 4 5 6 6 6 6 7 5 8 10 10 10 1 5 3 4 10 12 14 15 15 15 13 11 11 11 12 13 15 17 18 18 18 18 19 18 18 14 13 17 17 13 17 15 16
11 11 11 10 10 10 10 10 10 10 10 10 9 9 9 9 8 8 9 9 9 9 8 9 8 8 8 10 15 15 11 10 13 12 10 9 4 3 3 3 5 5 6 7 7 7 7 8 11 10 10 10 9 9 7 8 11 13 14 15 16 16 14 15 15 15 14 15 14 14 13 15 16 16 18 19 20 19 18 17 15 17 18 18 16
11 11 11 11 10 10 10 10 11 11 11 11 10 9 8 8 8 9 8 8 7 6 8 7 9 8 9 11 10 11 11 9 10 11 9 7 4 2 2 4 5 6 6 7 8 8 9 9 8 15 16 12 9 7 8 8 11 14 14 14 15 16 14 14 14 13 15 15 15 15 15 15 14 14 15 14 14 17 18 18 18 19 20 17 16
12 12 11 11 11 11 11 11 11 12 11 11 11 11 10 9 9 8 5 5 6 6 7 8 9 10 9 10 10 9 8 9 8 10 8 7 4 3 2 4 4 5 7 8 9 9 9 8 8 1 8 7 6 6 7 8 9 13 15 15 16 15 14 15 16 16 16 16 16 16 15 15 15 15 15 15 15 15 15 17 17 18 18 18 16
12 12 12 12 12 12 12 11 12 11 12 12 12 12 11 9 6 7 7 7 8 8 8 7 7 8 8 8 9 8 7 8 8 7 8 6 6 6 4 3 4 6 8 9 9 9 9 9 9 5 9 6 5 5 8 10 11 13 17 18 18 17 17 17 17 16 15 15 15 15 15 14 14 14 14 14 14 15 15 15 16 17 18 17 17
13 13 12 13 13 12 12 13 12 10 11 12 12 12 10 8 7 8 7 8 9 10 10 9 9 8 7 6 7 7 5 4 5 6 7 7 8 8 6 5 0 6 8 9 10 10 9 9 9 6 8 10 12 13 15 17 17 17 19 18 18 18 17 16 16 15 15 14 14 15 15 14 14 14 14 14 14 14 14 14 16 16 16 16 17
13 13 14 13 13 13 13 12 13 13 14 13 11 11 9 8 9 8 8 9 9 9 9 9 9 8 7 7 7 6 6 5 5 5 7 9 7 7 8 8 7 6 7 8 9 9 10 9 10 17 18 18 18 18 18 18 17 19 19 20 20 18 15 15 14 14 14 14 15 16 15 14 14 15 14 13 13 14 14 14 14 15 15 14 16
14 15 15 16 14 13 13 13 13 13 12 11 10 8 8 10 9 9 9 9 10 10 9 9 9 8 8 7 6 5 5 5 5 7 9 8 9 8 9 10 11 9 7 8 8 9 11 14 16 17 16 16 18 19 18 19 21 21 21 20 18 13 14 13 13 13 14 15 15 15 15 15 14 14 14 13 13 13 13 13 14 14 14 15 15
16 16 15 14 15 14 14 14 13 12 9 6 7 8 10 11 10 9 8 9 9 9 9 9 8 8 7 6 6 6 5 4 4 6 8 8 10 11 11 11 11 9 11 11 13 14 15 16 17 17 17 15 13 12 12 13 13 14 16 16 13 13 12 12 13 14 14 14 14 14 14 13 13 13 14 14 14 14 13 13 13 12 12 12 12
16 16 16 15 15 14 14 12 9 6 6 6 7 7 8 8 9 9 8 9 9 9 9 9 8 7 7 6 5 5 4 4 3 2 2 3 5 3 5 5 8 11 9 8 9 9 8 9 12 14 16 18 19 18 18 16 14 13 11 11 11 11 12 12 13 13 13 13 14 14 13 13 13 13 13 13 14 13 13 13 12 12 11 11 12
16 17 17 14 13 11 8 6 8 7 8 8 7 7 8 9 9 9 6 6 7 8 8 7 8 8 7 7 6 6 5 3 4 4 4 5 5 6 6 6 7 7 8 8 9 10 11 12 12 10 9 9 10 9 9 9 10 11 11 11 11 11 13 14 14 14 15 15 15 14 14 13 13 13 12 13 13 13 13 13 13 12 11 10 9
16 16 14 10 4 4 8 9 9 10 9 8 9 8 9 10 9 8 7 5 5 5 4 6 6 5 6 4 3 4 4 4 6 6 4 5 3 5 6 6 7 8 8 11 11 11 10 10 8 9 9 9 9 9 10 10 10 11 12 12 11 11 11 11 12 13 13 13 14 13 14 14 14 13 13 13 13 13 12 12 11 11 10 10 10
8 4 5 8 9 8 8 10 8 8 7 7 8 9 14 14 8 7 4 10 13 12 8 6 6 6 6 5 6 4 4 5 6 3 1 2 3 5 5 7 8 9 11 13 11 9 8 9 8 8 9 9 10 10 10 10 11 11 10 12 11 12 12 12 12 13 12 12 12 12 13 13 13 13 13 13 13 13 12 10 9 9 9 10 10
7 7 6 6 7 9 9 9 9 8 10 9 10 11 10 11 16 16 12 11 12 13 12 13 12 10 6 6 8 11 10 7 4 2 1 3 3 4 6 7 9 10 11 9 8 7 8 8 9 9 9 9 9 10 10 11 11 11 11 11 10 11 11 12 12 11 12 12 12 12 12 13 13 12 11 11 11 11 10 9 10 10 9 10 10
7 8 7 7 8 8 8 9 10 9 10 10 11 11 12 11 9 13 14 12 11 11 11 10 10 9 10 7 6 6 6 6 3 0 1 3 4 5 7 8 9 10 11 11 8 8 8 8 9 9 9 9 10 10 10 11 11 11 11 11 11 11 11 12 12 12 12 12 12 12 12 12 12 12 10 10 9 10 8 10 9 9 10 11 10
9 8 8 9 9 9 8 6 7 8 10 10 10 10 10 9 8 6 7 11 11 10 9 8 8 9 10 11 11 10 7 5 2 1 3 4 5 6 8 11 13 14 13 8 6 8 7 8 8 9 9 10 10 10 11 11 11 11 11 12 12 11 11 12 12 13 13 12 12 12 12 12 12 12 11 11 11 12 11 11 11 11 10 12 13
8 7 9 10 9 8 7 6 7 8 10 11 10 10 9 8 8 7 6 5 6 8 8 8 7 8 8 7 7 6 4 3 1 2 3 4 6 9 10 8 12 13 10 5 7 8 8 8 8 9 10 10 10 10 11 11 11 11 11 11 11 11 13 13 13 13 12 11 12 11 11 11 11 12 13 12 11 10 10 11 10 11 13 13 12
8 8 10 4 7 7 8 8 9 10 9 9 9 8 8 7 8 8 7 6 5 5 4 4 3 4 4 4 4 3 4 3 2 2 1 4 8 10 12 7 4 3 3 7 8 9 8 9 9 9 10 10 11 11 11 12 11 11 11 12 12 12 12 12 12 11 11 11 11 11 11 11 11 11 11 11 11 11 11 10 10 9 10 10 11
7 5 4 3 6 8 9 9 9 9 9 9 8 8 8 8 7 7 7 7 7 5 4 3 3 5 3 3 4 3 3 2 4 5 5 4 10 9 5 7 7 6 7 7 8 8 9 10 10 10 11 11 11 11 11 12 12 12 12 13 13 12 12 12 12 12 12 12 12 11 11 11 10 10 10 10 11 12 10 9 9 8 8 8 9
6 5 4 4 6 8 9 10 10 9 9 7 8 7 7 6 5 6 6 5 3 4 4 4 4 5 4 5 6 6 7 5 7 8 8 12 13 8 6 7 7 7 8 8 8 9 9 9 9 9 10 11 11 11 12 12 12 13 13 13 13 13 12 12 12 12 13 14 13 11 11 11 11 9 9 10 10 9 9 10 10 8 8 9 8
2 3 3 1 0 2 7 7 6 6 6 7 6 6 5 5 5 4 4 3 3 3 3 5 6 4 5 4 9 5 6 9 6 5 9 13 7 5 7 6 7 8 8 8 9 9 9 10 10 10 10 11 12 12 12 12 12 13 13 12 12 12 14 14 13 12 10 9 10 10 10 9 9 9 9 10 10 9 9 7 8 9 8 8 8
2 5 6 5 2 1 4 5 7 7 6 5 5 5 3 3 2 2 3 3 3 2 2 3 2 0 1 2 1 1 4 5 3 1 2 3 5 6 6 7 7 8 8 9 9 10 9 10 10 10 10 11 12 12 12 12 12 12 12 12 13 12 12 11 11 11 10 10 11 10 10 10 9 8 8 8 8 8 8 8 7 7 7 7 7
3 3 4 5 5 2 2 4 6 6 5 4 4 3 3 2 1 1 2 2 2 2 1 1 0 2 3 4 3 4 5 3 2 2 2 3 5 6 5 7 7 8 9 9 9 10 10 10 10 10 11 11 12 12 11 12 12 12 12 12 12 12 12 12 12 11 11 11 10 10 9 9 8 7 6 6 6 6 6 6 6 7 7 7 6
3 4 5 5 6 4 3 5 5 4 3 3 3 2 2 1 1 1 1 1 1 1 0 1 3 4 5 5 5 6 5 3 2 2 2 3 5 6 6 6 7 8 9 9 9 9 10 10 10 11 11 11 11 12 12 12 12 12 12 12 12 12 13 12 12 11 11 11 10 9 8 8 7 5 5 5 6 6 5 5 5 5 6 5 5
4 5 5 5 5 3 4 3 4 5 4 3 4 2 3 3 2 1 1 1 1 0 1 1 3 4 6 4 5 8 6 2 2 4 2 3 4 5 6 6 6 7 8 9 10 10 10 10 11 11 11 12 11 12 11 12 12 12 12 12 11 12 12 13 12 11 10 10 9 9 8 7 7 5 5 6 4 4 4 5 5 5 6 6 6
5 5 6 6 4 3 4 4 4 4 4 4 4 5 5 4 3 3 3 4 3 3 1 1 1 1 2 5 2 7 3 1 2 2 3 3 3 4 5 6 6 7 8 8 8 9 9 10 11 11 12 12 12 11 12 12 12 12 13 12 12 12 12 12 11 10 9 9 9 9 9 7 6 4 3 3 3 3 4 5 4 5 5 5 5
6 6 6 5 5 4 4 5 6 6 5 7 6 6 5 4 3 4 3 3 2 2 2 1 1 1 1 1 1 2 2 2 2 3 3 3 4 4 5 6 7 7 7 8 9 9 10 10 11 11 12 12 10 9 10 11 11 12 12 12 12 13 12 11 11 11 9 9 8 7 7 7 6 4 2 2 2 3 3 4 4 5 5 5 7
6 5 5 5 5 5 6 7 7 5 6 5 3 4 5 4 4 3 3 2 3 2 1 1 1 2 2 2 2 2 2 2 3 3 3 4 4 4 5 6 7 7 8 8 8 9 9 10 11 11 13 12 12 11 11 11 11 11 11 12 11 11 11 12 11 10 8 8 8 7 6 5 5 3 2 0 1 2 2 3 3 6 6 6 7
6 6 5 5 6 6 6 7 6 6 4 3 3 3 3 4 4 4 4 3 2 2 1 1 1 2 2 2 2 4 3 3 3 3 5 4 4 5 5 6 7 7 7 8 9 9 9 10 11 11 12 13 12 12 12 11 11 11 10 10 10 10 10 10 9 8 8 7 7 6 5 3 3 2 3 1 2 2 3 4 5 4 5 6 7
7 6 6 6 7 7 7 7 6 6 6 5 5 4 3 4 4 4 5 4 3 3 1 2 2 3 3 3 4 4 5 4 4 4 4 4 5 5 5 6 7 7 8 8 8 9 10 10 11 11 11 11 12 12 11 11 12 11 9 9 9 10 10 9 8 7 7 6 5 4 4 3 3 3 3 3 4 4 4 5 5 5 5 6 7
7 7 7 7 6 6 6 6 7 7 6 6 6 5 5 4 4 4 4 3 3 3 3 4 4 4 4 4 5 5 5 5 4 5 4 4 5 5 6 6 7 7 8 8 8 8 9 9 10 11 11 9 9 12 11 11 12 12 11 10 10 11 13 13 8 7 6 5 5 4 4 4 4 4 4 5 5 5 7 7 6 6 6 7 6
7 7 7 7 7 6 6 6 6 6 6 5 6 5 5 5 5 5 4 4 4 4 5 5 5 5 5 5 6 6 6 6 5 5 5 5 5 5 6 6 7 8 8 8 8 9 9 9 10 10 10 9 10 12 12 11 12 12 11 9 13 19 17 17 11 8 9 6 6 5 5 5 5 6 6 6 7 7 7 6 6 7 7 7 8
7 7 7 7 7 7 7 7 6 6 6 6 6 5 6 6 6 6 6 6 6 6 6 6 6 5 5 5 6 6 6 6 5 5 6 5 5 6 6 7 7 8 8 8 8 8 8 9 9 10 10 9 10 12 12 11 10 12 12 13 18 18 17 17 15 15 9 6 7 6 6 6 6 7 7 7 7 7 9 9 7 7 8 9 8
8 8 8 8 7 7 7 7 7 7 7 6 6 6 6 6 6 6 6 6 6 6 6 6 6 6 6 5 6 5 6 6 6 6 6 6 6 6 7 7 7 8 8 8 8 8 8 9 9 10 10 9 9 10 10 9 8 10 15 20 19 18 18 17 12 14 14 8 7 8 7 7 7 7 6 6 6 7 8 9 9 9 9 9 8
Wind_Direction
223 220 222 223 222 221 222 223 226 227 227 223 225 223 217 212 209 204 194 196 189 190 197 195 193 192 191 191 191 189 188 186 187 184 193 180 188 168 164 183 183 178 168 170 183 189 190 257 238 219 266 283 288 284 271 278 266 261 268 270 270 266 267 275 278 283 282 280 282 285 294 298 287 282 285 287 287 282 279 278 279 278 275 269 267
230 238 237 232 225 223 223 226 228 229 228 226 227 227 221 216 211 202 202 197 192 193 197 197 197 196 197 195 194 193 193 191 190 192 196 183 182 173 184 183 195 164 183 185 157 188 186 247 297 297 286 290 292 285 282 266 265 263 252 250 265 272 261 273 278 283 288 291 286 289 291 288 284 281 281 287 286 286 283 283 278 274 267 270 265
263 245 241 238 235 238 236 229 227 225 226 231 233 233 229 225 214 207 205 201 199 199 199 195 198 198 198 198 196 196 196 194 193 198 195 191 186 182 186 188 186 183 189 190 203 158 215 219 255 268 257 270 276 274 280 270 271 274 274 272 271 269 271 267 277 280 285 286 289 285 279 279 278 287 284 281 284 289 287 282 279 272 272 267 263
248 249 244 246 243 240 242 250 242 233 231 233 236 233 233 228 219 215 214 210 205 204 202 197 194 197 198 200 198 194 194 192 193 200 198 195 192 186 187 186 189 193 198 199 196 201 228 253 250 264 275 279 282 290 279 279 275 280 281 272 261 257 259 262 257 269 277 281 281 282 288 291 285 280 279 274 273 271 277 287 285 281 275 265 261
297 254 236 237 238 243 240 244 248 244 246 254 244 238 233 229 224 219 213 211 210 202 203 204 202 200 199 199 197 195 195 191 193 196 194 194 195 189 188 187 187 192 192 199 206 246 243 259 280 287 282 281 277 273 290 294 289 284 283 283 278 275 264 256 263 266 275 277 279 277 279 274 275 279 280 281 279 276 278 274 281 289 288 286 283
20 7 331 303 284 269 265 250 248 247 242 244 244 238 235 234 231 223 218 214 206 197 193 187 204 210 208 205 200 196 196 192 194 192 189 187 190 186 191 186 190 193 186 209 210 220 251 271 278 279 283 283 284 289 287 285 286 281 280 284 289 291 286 281 277 272 272 272 274 278 269 273 278 272 277 278 280 282 281 283 282 276 275 274 269
13 11 12 359 338 310 271 269 262 246 236 239 245 248 248 244 239 234 230 227 215 194 182 194 197 205 205 206 204 199 197 194 193 190 187 186 187 185 185 186 188 186 196 202 212 226 249 259 263 265 267 270 279 280 285 285 276 277 275 274 272 271 272 272 272 275 275 277 277 275 278 270 262 272 269 271 277 279 282 284 279 274 274 279 282
6 9 6 352 347 340 324 306 289 266 261 256 252 250 251 246 241 245 237 224 219 204 200 200 203 204 207 205 202 196 196 191 190 187 190 192 189 184 183 185 186 184 191 208 206 226 238 251 253 262 264 266 277 287 287 279 283 278 275 272 273 271 272 271 268 267 268 270 272 278 276 281 277 269 271 266 265 264 260 273 286 295 295 296 290
356 355 348 329 330 320 311 304 290 281 267 259 250 240 240 247 239 227 224 227 225 218 213 210 204 206 205 205 196 192 186 174 182 181 185 196 189 185 182 183 185 190 195 204 213 228 246 250 258 258 276 329 332 297 285 294 286 276 275 276 272 271 270 269 270 269 267 268 270 269 270 270 273 278 276 274 272 285 303 302 289 287 285 281 276
342 337 324 320 304 298 299 296 295 298 290 273 259 251 246 231 228 231 230 231 231 233 233 223 212 206 192 199 198 185 169 178 154 170 188 190 184 181 173 177 188 197 204 216 230 243 251 264 258 248 247 244 242 240 242 249 248 256 270 273 273 271 269 270 270 270 271 272 270 272 271 268 270 272 276 278 284 283 279 274 273 278 281 278 276
324 319 313 309 298 283 277 276 280 278 278 277 270 260 238 213 218 226 233 231 229 226 226 224 225 208 200 196 189 176 173 166 145 144 135 161 177 166 173 178 180 192 209 226 255 262 264 267 279 253 219 222 226 226 239 237 233 239 245 253 267 273 277 273 268 268 272 273 273 269 266 267 266 268 270 276 276 276 276 278 278 277 275 280 282
308 305 298 295 291 290 286 278 268 267 268 267 264 257 252 233 220 222 223 225 228 222 219 226 224 218 210 207 192 175 179 130 134 125 121 118 139 167 171 173 181 203 214 240 256 268 279 283 280 279 274 277 291 271 231 221 228 231 232 239 241 245 250 257 265 267 266 267 266 264 266 265 268 266 269 269 271 271 270 272 275 278 275 271 271
305 302 297 294 291 288 287 286 284 278 270 266 264 259 251 247 242 236 230 224 223 228 226 222 220 217 210 197 184 180 152 139 130 128 118 109 107 165 171 176 194 201 234 254 269 283 288 288 285 278 279 258 251 254 265 262 218 214 228 230 233 235 238 238 245 255 267 267 268 268 266 273 271 266 267 276 283 284 284 274 271 273 274 272 268
291 288 287 286 288 288 287 288 285 283 281 273 263 256 247 242 240 239 242 230 223 226 226 219 220 214 205 192 177 163 138 141 130 126 121 118 116 225 162 164 212 239 249 261 267 275 278 281 284 282 280 275 274 271 277 275 288 273 242 242 249 230 220 228 232 233 235 249 257 262 266 271 272 274 276 276 273 272 274 274 275 272 269 270 275
298 290 284 284 285 286 286 286 284 281 277 272 268 262 257 250 240 235 234 233 228 228 227 223 216 211 198 181 168 146 130 135 129 129 127 131 140 229 167 173 218 231 235 250 256 261 268 266 271 275 278 276 272 297 288 292 289 281 272 272 268 273 273 253 232 228 230 231 244 253 261 262 265 269 269 267 269 273 273 274 272 273 274 278 277
301 300 296 294 290 287 285 281 276 270 266 264 262 260 256 250 246 240 239 236 233 233 231 224 212 199 179 162 146 126 128 136 132 132 134 138 166 200 183 197 229 233 246 253 254 261 261 264 270 276 278 276 277 221 265 287 286 283 280 275 273 272 268 260 267 291 290 283 277 268 265 277 300 297 306 310 309 305 311 302 276 265 266 265 263
296 294 292 293 293 289 285 281 277 272 268 267 262 257 256 252 246 242 237 235 236 233 229 221 208 195 163 146 125 119 129 136 131 134 140 153 192 206 185 230 234 234 251 257 258 257 256 258 266 284 286 281 306 78 164 248 279 282 282 281 279 277 271 272 260 247 248 268 277 280 280 277 276 278 279 281 282 291 291 281 266 270 262 261 262
294 294 292 292 287 284 281 279 275 271 267 264 264 261 257 254 251 242 242 238 234 231 225 208 195 163 135 126 126 128 132 137 137 142 152 174 229 234 231 252 253 264 264 259 264 266 265 238 250 269 272 270 356 84 95 280 283 285 286 286 284 279 276 275 272 264 239 228 241 254 265 274 276 274 273 273 272 267 261 256 255 257 258 258 262
287 289 291 290 288 284 282 278 276 275 272 270 268 266 261 257 253 248 244 242 239 225 208 199 163 124 109 115 124 127 133 142 145 149 159 173 213 229 262 273 278 274 283 282 277 279 278 260 210 223 253 266 265 268 280 277 280 285 286 285 281 277 277 279 278 279 276 274 269 260 247 236 237 245 251 240 240 247 253 256 254 249 254 257 259
284 283 281 281 282 281 276 274 271 270 270 269 268 268 265 260 252 247 247 242 223 204 196 165 119 106 109 116 124 128 136 146 152 153 157 171 236 315 291 281 283 288 288 290 295 288 283 282 250 199 218 234 256 256 241 237 268 284 284 280 277 276 279 277 277 282 280 276 273 271 272 275 275 267 263 256 238 227 238 246 244 242 248 252 251
283 279 277 277 277 275 273 270 270 271 271 271 270 267 265 259 249 238 221 222 208 180 140 118 119 119 120 124 125 133 140 146 152 161 159 168 171 243 284 284 286 296 295 299 289 288 286 281 287 297 138 168 191 216 234 239 249 275 278 274 271 281 298 285 282 288 280 275 272 271 271 269 265 261 259 256 252 248 242 239 239 240 243 246 247
280 278 274 274 276 275 274 273 270 270 269 268 266 264 259 253 224 198 198 187 157 130 119 112 109 115 115 117 119 120 122 120 151 166 166 165 173 221 275 298 350 306 297 289 287 282 285 288 290 348 40 26 3 308 285 276 268 274 274 274 279 283 278 274 277 277 273 269 268 266 263 259 257 256 255 254 254 251 249 247 243 240 241 244 247
280 278 275 273 276 276 272 270 267 263 261 260 259 258 248 229 206 191 161 135 127 125 125 121 114 108 104 100 107 114 122 103 126 159 171 181 179 204 227 282 149 274 288 289 289 287 284 292 286 29 5 325 304 295 291 286 281 275 273 270 267 266 266 269 267 267 265 263 260 259 258 255 254 255 254 255 253 252 252 251 251 251 250 249 248
276 274 273 276 275 273 272 266 261 260 258 258 255 246 230 207 192 174 139 135 128 127 127 128 125 126 128 130 132 142 140 136 155 194 172 181 190 204 204 222 242 277 296 289 286 286 286 290 323 336 315 305 293 284 279 274 278 279 277 274 271 270 269 269 264 260 259 257 256 255 253 252 253 253 254 254 254 253 251 250 250 249 250 250 249
283 279 276 273 273 270 267 266 264 262 261 250 240 216 190 176 160 154 137 135 131 125 124 128 133 134 136 143 146 139 143 170 169 175 200 191 199 206 211 222 230 227 256 283 287 293 302 303 289 281 281 280 278 275 271 264 254 254 257 259 262 268 267 262 258 254 253 252 252 253 253 253 252 254 255 253 252 251 251 251 249 250 252 253 254
277 274 271 269 268 268 265 263 261 258 252 230 207 188 164 160 157 139 121 122 124 121 125 134 137 137 131 130 142 152 171 160 171 174 190 198 208 199 213 219 236 231 240 262 266 267 261 260 265 263 263 265 273 287 296 295 293 288 281 272 272 270 263 261 257 255 254 255 255 255 256 258 256 253 254 254 253 251 250 248 247 246 245 247 249
272 268 266 266 265 260 258 258 254 234 200 176 166 157 150 140 131 120 118 119 124 131 132 130 131 132 137 146 142 138 162 182 169 101 43 350 329 301 242 251 218 226 238 266 255 254 273 295 304 300 284 275 267 262 262 266 267 265 259 253 256 262 258 254 254 256 257 256 257 257 259 260 261 261 257 253 249 247 244 245 244 244 243 246 249
271 268 265 263 261 259 252 101 131 149 145 139 129 112 109 117 120 115 121 125 127 129 133 136 136 147 155 149 150 161 163 133 71 31 9 344 333 325 324 317 316 325 311 313 323 312 300 290 280 275 290 290 289 299 297 295 292 291 288 286 281 277 274 269 265 265 264 263 264 263 260 259 257 255 255 251 249 246 243 241 240 242 239 242 245
272 266 264 259 229 139 140 146 149 137 126 117 112 115 128 122 112 114 122 135 131 131 135 125 127 117 122 130 135 114 94 84 59 45 33 14 332 332 327 326 330 316 347 355 315 299 296 298 300 300 301 303 302 300 301 300 298 294 290 286 284 282 280 277 274 270 265 261 258 256 257 257 256 253 251 250 248 245 241 240 237 238 238 237 241
268 233 157 138 130 125 126 126 113 103 95 103 98 73 43 48 71 115 105 66 67 64 76 104 108 132 112 80 47 66 72 69 92 110 114 218 235 254 278 298 303 300 307 303 295 299 302 305 307 305 304 303 304 302 300 300 299 298 293 291 286 280 279 278 275 273 272 270 270 267 262 259 257 254 251 249 249 245 239 233 234 227 231 231 235
106 106 103 103 113 121 122 120 117 110 115 125 120 114 112 67 49 53 67 81 81 79 78 75 61 53 91 111 77 74 91 102 119 120 200 234 263 279 292 305 309 310 308 313 313 306 307 306 305 303 301 302 302 303 303 301 299 298 296 293 288 283 278 274 272 272 271 270 267 263 262 259 258 255 250 247 245 244 242 228 226 226 226 230 234
94 92 91 92 96 96 97 110 126 137 132 128 123 126 118 112 85 47 47 59 67 82 92 89 85 80 75 87 128 134 139 133 87 40 287 294 299 309 303 304 301 293 287 281 282 298 308 308 306 304 305 302 301 304 303 301 299 296 296 293 291 288 285 280 278 279 278 276 272 268 266 263 260 256 251 248 242 240 228 229 221 221 225 230 230
89 90 80 88 84 83 91 94 105 109 111 113 118 117 115 112 109 102 57 57 65 61 62 82 94 94 88 73 63 73 76 72 65 325 325 333 324 315 307 283 266 257 256 276 310 313 311 307 305 304 303 303 306 306 306 304 302 300 298 296 294 291 287 285 285 284 280 275 271 268 265 263 262 260 256 251 245 243 238 235 231 223 222 229 234
56 71 98 101 100 110 113 110 110 111 114 119 120 121 121 122 124 119 120 116 92 73 63 62 86 97 78 84 104 116 129 165 195 328 342 330 322 289 275 272 259 258 249 295 319 319 315 312 307 306 306 306 307 307 307 306 304 302 298 295 293 293 291 291 289 284 281 275 271 268 264 261 259 258 257 255 246 242 240 236 230 227 227 228 230
88 55 26 49 130 131 132 125 123 121 116 118 121 125 126 131 135 141 144 143 140 138 141 124 88 36 119 138 139 151 163 187 224 320 344 293 274 272 279 277 322 356 276 323 326 320 320 316 314 313 313 312 312 310 306 306 303 301 298 297 297 295 293 290 286 282 278 277 272 270 267 265 263 259 259 257 253 246 239 233 227 222 225 226 227
104 107 106 49 118 126 129 130 128 128 134 134 134 130 135 143 148 143 142 142 144 148 148 151 152 98 78 88 160 183 199 212 225 212 252 258 261 266 298 357 341 343 336 334 333 327 320 319 317 315 315 314 315 314 312 308 305 302 301 300 299 296 294 290 288 286 284 282 278 273 270 265 259 254 254 252 245 241 238 230 224 218 217 221 227
114 116 140 125 125 136 137 139 141 134 130 131 132 137 141 138 138 142 148 151 148 152 146 146 150 151 196 188 184 204 216 219 217 214 213 230 248 252 352 351 344 330 336 335 334 331 326 324 323 318 317 316 315 313 311 307 304 303 302 300 297 295 292 293 290 287 286 284 278 272 267 267 262 253 246 249 244 235 228 229 226 220 214 215 217
124 132 146 168 320 110 134 130 91 90 128 137 134 135 143 139 148 150 147 140 156 162 167 164 181 189 188 170 180 213 197 208 223 252 239 243 253 352 358 345 343 336 335 336 336 333 330 326 323 321 318 318 318 316 312 307 305 305 304 302 299 295 290 289 284 279 276 273 274 275 275 267 255 248 245 242 240 234 227 218 220 222 219 212 213
94 56 90 95 80 130 134 128 138 147 142 148 140 142 146 146 157 153 151 147 166 177 176 166 188 100 57 26 328 201 225 239 236 314 15 4 355 352 348 343 339 341 336 335 336 335 333 329 326 324 321 318 317 314 311 309 307 305 303 302 300 300 299 297 294 290 287 287 286 283 279 278 271 261 249 242 235 229 225 218 210 212 215 212 207
125 149 123 126 124 126 165 148 158 155 155 155 148 152 154 169 166 155 157 163 173 181 170 148 123 75 50 29 8 334 309 326 2 347 10 4 354 350 334 341 339 338 337 332 336 336 335 332 331 325 322 319 317 315 311 309 308 305 304 303 304 301 298 298 298 297 295 293 290 287 284 283 279 271 252 237 233 223 219 212 211 208 216 220 212
148 132 140 133 106 152 163 164 166 151 150 132 123 128 82 103 121 153 151 153 160 138 129 100 87 76 57 29 352 326 297 317 360 352 9 0 349 341 335 333 336 335 334 334 333 334 334 331 327 326 321 320 316 314 312 311 311 309 308 308 306 303 302 301 299 297 296 294 292 292 294 296 288 263 244 229 222 223 217 210 210 207 208 212 212
133 135 132 125 132 153 146 119 103 86 88 78 75 79 105 98 85 87 90 102 78 73 94 93 94 100 97 50 357 317 294 360 4 352 351 347 341 337 333 328 330 336 333 332 334 332 334 330 327 325 323 319 318 315 315 314 315 314 313 309 306 305 305 305 305 301 297 297 298 298 302 301 295 274 254 252 232 215 214 208 205 203 201 199 194
109 119 118 128 134 145 141 123 103 92 83 83 82 71 63 71 86 86 76 59 46 39 42 54 66 52 101 103 335 286 297 14 1 340 345 332 329 330 330 329 332 334 332 328 331 335 331 329 327 327 325 322 319 321 318 317 317 317 314 310 309 308 308 307 306 304 304 303 305 305 306 304 298 279 261 248 240 218 211 206 201 197 197 190 176
91 93 106 114 115 113 101 99 85 79 73 70 65 56 53 67 63 62 68 65 50 38 33 27 19 6 10 120 212 322 10 351 347 343 339 322 324 324 327 329 332 330 328 328 333 338 333 330 330 328 326 324 324 319 318 316 317 317 316 314 311 310 310 310 309 308 308 305 303 304 309 307 306 303 289 257 225 203 195 190 191 186 174 164 157
74 86 110 123 116 108 94 88 88 92 98 98 81 75 60 55 56 50 46 56 55 42 28 10 6 1 7 12 13 1 351 347 339 334 331 330 325 325 324 329 330 329 323 325 336 336 333 332 331 331 329 327 329 325 323 320 319 318 316 314 312 311 312 310 306 303 297 301 306 308 312 312 314 308 298 219 156 173 165 157 155 149 151 149 146
67 68 71 83 87 85 86 84 82 80 72 68 75 75 67 64 63 53 49 51 44 14 10 14 9 12 7 6 360 359 348 344 332 333 330 332 333 329 326 326 329 324 324 328 333 336 338 337 336 334 333 332 331 327 325 324 324 322 316 315 313 313 310 308 303 299 306 314 314 308 316 330 344 352 8 79 95 109 116 121 130 135 135 134 128
63 67 66 69 69 68 65 62 60 64 69 63 60 60 59 57 56 67 64 52 35 28 18 19 13 16 11 7 358 349 341 335 335 330 333 331 334 333 330 328 328 325 326 328 334 341 343 342 341 338 336 337 331 327 327 328 329 328 322 319 317 322 322 322 314 312 321 323 321 331 343 354 11 28 47 75 89 92 98 97 91 93 89 101 113
59 63 65 65 66 67 72 76 82 77 72 68 60 59 57 57 59 50 42 47 43 36 32 31 24 19 8 2 354 340 337 331 329 329 330 333 341 339 337 330 327 327 325 329 336 340 340 342 342 341 342 337 331 332 331 331 332 335 331 329 331 334 337 337 326 327 323 346 354 4 20 29 39 40 48 58 74 82 94 94 90 82 85 89 92
54 56 59 59 62 64 65 66 63 62 68 71 70 63 58 56 53 49 50 42 39 35 31 26 26 17 8 359 345 339 334 329 329 332 332 336 340 344 341 338 329 324 327 333 335 339 341 344 346 347 349 340 338 337 337 336 339 341 339 335 342 346 349 348 343 344 345 10 14 19 30 44 49 58 60 67 74 78 75 64 67 78 81 83 82
58 59 64 66 70 70 69 69 70 73 70 70 68 65 61 59 56 52 47 42 41 36 31 29 22 15 3 355 349 339 334 331 333 333 334 335 340 345 344 341 334 328 329 332 337 343 342 344 348 351 353 350 346 345 348 346 343 345 344 348 351 354 357 356 351 356 2 33 22 25 23 41 54 64 65 68 70 74 83 87 81 77 84 90 86
63 63 65 66 67 69 68 70 70 69 69 71 70 69 63 58 55 49 43 40 36 30 25 18 14 9 3 356 350 339 336 334 335 332 332 335 341 342 346 343 340 336 330 331 339 344 343 347 351 353 358 1 353 346 345 338 341 344 349 354 356 359 3 6 3 360 7 16 41 39 42 38 50 47 53 60 63 67 78 84 89 92 93 93 95